This is the latest recevied weather packets stored in our database for station/object DL5TW-13. If no packets are shown the sender has not sent any weather packets the latest 10 day(s).
| Time | Temp. | Humidity | Pressure | Rain* | Wind** | Luminosity | Snow |
|---|---|---|---|---|---|---|---|
| 1777907925 | 23.33° C | 44% | 1007.4 hPa | 0 mm | - | - | - |
| 1777907625 | 23.33° C | 44% | 1007.6 hPa | 0 mm | - | - | - |
| 1777907324 | 23.89° C | 43% | 1007.5 hPa | 0 mm | - | - | - |
| 1777907024 | 24.44° C | 43% | 1007.5 hPa | 0 mm | - | - | - |
| 1777906724 | 24.44° C | 42% | 1007.5 hPa | 0 mm | - | - | - |
| 1777906424 | 24.44° C | 42% | 1007.6 hPa | 0 mm | - | - | - |
| 1777906123 | 25° C | 41% | 1007.6 hPa | 0 mm | - | - | - |
| 1777905823 | 25° C | 41% | 1007.6 hPa | 0 mm | - | - | - |
| 1777905523 | 25° C | 41% | 1007.7 hPa | 0 mm | - | - | - |
| 1777905222 | 24.44° C | 42% | 1007.8 hPa | 0 mm | - | - | - |
| 1777904922 | 24.44° C | 41% | 1007.8 hPa | 0 mm | - | - | - |
| 1777904622 | 25° C | 40% | 1007.7 hPa | 0 mm | - | - | - |
| 1777904322 | 25° C | 40% | 1007.7 hPa | 0 mm | - | - | - |
| 1777904021 | 25.56° C | 39% | 1007.6 hPa | 0 mm | - | - | - |
| 1777903721 | 25.56° C | 40% | 1007.6 hPa | 0 mm | - | - | - |
| 1777903421 | 25.56° C | 40% | 1007.7 hPa | 0 mm | - | - | - |
| 1777903121 | 25° C | 41% | 1007.8 hPa | 0 mm | - | - | - |
| 1777902820 | 24.44° C | 41% | 1007.6 hPa | 0 mm | - | - | - |
| 1777902520 | 23.89° C | 42% | 1007.6 hPa | 0 mm | - | - | - |
| 1777902220 | 23.89° C | 41% | 1007.8 hPa | 0 mm | - | - | - |
| 1777901919 | 24.44° C | 41% | 1007.7 hPa | 0 mm | - | - | - |
| 1777901619 | 24.44° C | 40% | 1007.8 hPa | 0 mm | - | - | - |
| 1777901319 | 24.44° C | 40% | 1007.9 hPa | 0 mm | - | - | - |
| 1777901018 | 25° C | 39% | 1008 hPa | 0 mm | - | - | - |
| 1777900718 | 25.56° C | 38% | 1008 hPa | 0 mm | - | - | - |
* Rain latest hour (hover to see other rain measurements)
** Current wind speed in m/s (hover to see current wind gust speed)